"startDT [UTC]","vpos","CH4 [ppm]","stdev(CH4) [ppm]","CO2 [ppm]","stdev(CO2) [ppm]","H2O_reported [%]","stdev(H2O_reported)","CavityPressure [torr]","CavityTemp [C]","OutletValve","CH4_dry [ppm]","CO2_dry [ppm]","DasTemp [C]","EtalonTemp [C]","WarmBoxTemp [C]","MPVPosition","T_ECpre [C]","T_EC1 [C]","T_EC2 [C]","p_inlet [hPa]","p_in [hPa]","p_out [hPa]","T_inlet [C]","RH_inlet [%]","dwpt_inlet [C]","T_vent [C]","RH_vent [%]","dwpt_vent [C]","flow_vent [l min-1]","flow_inlet [l min-1]","dwpt_sample [C]","T_room [C]"
2014-11-20 00:00:00,3.0,1.88501,0.02345,399.363,1.743,0.0124,0.0158,139.995,45.000,41971.11196,1.88833,399.555,32.762,45.067,45.000,0.00,0.09,-272.69,-272.74,7,516,-0,18.9,2.1,-31.0,19.2,2.1,-30.8,5.73,1.90,-17.4,25.1
2014-11-20 00:01:00,3.0,1.87754,0.00039,397.352,0.061,0.0020,0.0014,139.999,45.000,41972.59841,1.87754,397.366,32.759,45.067,45.000,0.00,0.09,-272.69,-272.74,6,515,-0,18.9,2.1,-31.0,19.2,2.1,-30.8,5.73,2.10,-17.4,25.0
2014-11-20 00:02:00,3.0,1.87713,0.00039,397.338,0.073,0.0031,0.0017,140.000,45.000,42010.01228,1.87724,397.350,32.750,45.067,45.000,0.00,0.09,-272.68,-272.74,5,515,-0,18.9,2.1,-31.0,19.2,2.1,-30.8,5.73,2.03,-17.4,25.1
2014-11-20 00:03:00,3.0,1.87715,0.00027,397.573,0.047,0.0039,0.0021,140.001,45.000,42002.02696,1.87722,397.588,32.750,45.067,45.000,0.00,0.09,-272.68,-272.74,6,515,-0,18.9,2.1,-31.0,19.2,2.1,-30.8,5.73,1.79,-17.4,25.1
2014-11-20 00:04:00,3.0,1.87709,0.00031,397.665,0.030,0.0029,0.0019,140.005,45.000,42058.19208,1.87715,397.677,32.750,45.067,45.000,0.00,0.09,-272.69,-272.75,7,515,-0,18.9,2.1,-30.9,19.3,2.1,-30.7,5.73,1.96,-17.4,25.1
2014-11-20 00:05:00,3.0,1.87701,0.00032,397.718,0.028,0.0027,0.0017,140.003,45.000,42090.55340,1.87707,397.732,32.750,45.067,45.000,0.00,0.09,-272.68,-272.74,6,516,-0,18.9,2.1,-31.0,19.3,2.1,-30.7,5.73,2.13,-17.4,25.1
2014-11-20 00:06:00,3.0,1.87709,0.00040,397.715,0.045,0.0022,0.0016,139.979,45.000,42042.69932,1.87713,397.725,32.750,45.067,45.000,0.00,0.09,-272.67,-272.74,5,516,-0,19.0,2.1,-31.1,19.3,2.1,-30.8,5.73,1.89,-17.4,25.2
2014-11-20 00:07:00,3.0,1.87724,0.00034,397.704,0.032,0.0018,0.0024,139.993,45.000,41898.28159,1.87725,397.714,32.751,45.067,45.000,0.00,0.09,-272.68,-272.74,5,516,-0,19.0,2.1,-31.0,19.3,2.1,-30.9,5.73,1.83,-17.4,25.2
2014-11-20 00:08:00,3.0,1.87691,0.00042,397.719,0.019,0.0018,0.0016,140.000,45.000,41885.76960,1.87693,397.727,32.750,45.067,45.000,0.00,0.09,-272.69,-272.74,6,516,-0,19.0,2.1,-31.1,19.3,2.1,-30.8,5.73,2.09,-17.4,25.2
2014-11-20 00:09:00,3.0,1.87721,0.00040,397.709,0.034,0.0004,0.0016,139.998,45.000,41807.21884,1.87725,397.712,32.752,45.067,45.000,0.00,0.09,-272.68,-272.74,7,517,-0,19.1,2.1,-31.1,19.3,2.1,-30.8,5.73,2.04,-17.4,25.2
2014-11-20 00:10:00,3.0,1.87700,0.00033,397.708,0.032,0.0009,0.0016,140.003,45.000,41915.29128,1.87701,397.710,32.754,45.067,45.000,0.00,0.09,-272.68,-272.74,6,517,-0,19.1,2.1,-31.1,19.4,2.1,-30.8,5.73,1.80,-17.4,25.3
2014-11-20 00:11:00,3.0,1.87723,0.00030,397.743,0.026,0.0002,0.0016,139.996,45.000,41843.23891,1.87720,397.744,32.752,45.067,45.000,0.00,0.09,-272.69,-272.74,5,517,-0,19.1,2.1,-31.0,19.4,2.1,-30.8,5.73,1.96,-17.4,25.3
2014-11-20 00:12:00,3.0,1.87721,0.00046,397.716,0.033,0.0010,0.0012,140.000,45.000,41856.75751,1.87725,397.722,32.750,45.067,45.000,0.00,0.09,-272.69,-272.74,6,517,-0,19.2,2.1,-31.0,19.4,2.1,-30.8,5.73,2.13,-17.4,25.3
2014-11-20 00:13:00,3.0,1.87725,0.00043,397.738,0.025,0.0007,0.0013,140.000,45.000,41862.82184,1.87723,397.740,32.753,45.067,45.000,0.00,0.09,-272.68,-272.73,7,518,-0,19.2,2.0,-31.1,19.5,2.1,-30.8,5.73,1.88,-17.4,25.4
2014-11-20 00:14:00,3.0,1.87735,0.00036,397.730,0.031,0.0001,0.0014,139.996,45.000,41865.58043,1.87737,397.730,32.753,45.067,45.000,0.00,0.09,-272.68,-272.75,6,518,-0,19.3,2.0,-31.2,19.5,2.1,-30.8,5.73,1.83,-17.4,25.4
2014-11-20 00:15:00,3.0,1.87729,0.00025,397.727,0.032,-0.0000,0.0016,140.006,45.000,41857.55372,1.87730,397.728,32.752,45.067,45.000,0.00,0.09,-272.70,-272.74,5,518,-1,19.3,2.0,-31.1,19.5,2.1,-30.7,5.73,2.10,-17.4,25.5
2014-11-20 00:16:00,3.0,1.87728,0.00028,397.725,0.026,-0.0004,0.0020,139.998,45.000,41929.39094,1.87724,397.721,32.752,45.067,45.000,0.00,0.09,-272.68,-272.73,6,518,-1,19.3,2.0,-31.1,19.5,2.1,-30.7,5.73,2.01,-17.4,25.5
2014-11-20 00:17:00,3.0,1.87726,0.00027,397.747,0.020,0.0005,0.0018,139.997,45.000,41878.72644,1.87729,397.750,32.752,45.067,45.000,0.00,0.09,-272.68,-272.74,6,519,-1,19.4,2.0,-31.0,19.6,2.1,-30.7,5.73,1.78,-17.4,25.5
2014-11-20 00:18:00,3.0,1.87726,0.00038,397.750,0.030,0.0002,0.0022,140.002,45.000,41959.60136,1.87726,397.750,32.753,45.067,45.000,0.00,0.09,-272.69,-272.74,6,519,-1,19.4,2.0,-31.0,19.6,2.1,-30.6,5.73,2.00,-17.4,25.5
2014-11-20 00:19:00,3.0,1.87699,0.00027,397.728,0.029,-0.0002,0.0022,140.001,45.000,42007.86057,1.87702,397.729,32.750,45.067,45.000,0.00,0.09,-272.65,-272.72,5,519,-1,19.5,2.0,-30.9,19.6,2.1,-30.7,5.73,2.11,-17.4,25.5
2014-11-20 00:20:00,0.0,1.93358,0.02054,402.613,1.752,0.0431,0.0174,139.997,45.000,41993.90515,1.93135,402.684,32.748,45.067,45.000,0.00,0.09,-272.69,-272.73,4,518,-1,19.5,2.1,-30.9,19.7,2.1,-30.5,5.73,2.01,-17.3,25.6
2014-11-20 00:21:00,0.0,1.94174,0.00029,403.218,0.032,0.0535,0.0016,140.004,45.000,42001.82638,1.94276,403.476,32.750,45.067,45.000,0.00,0.09,-272.69,-272.75,4,518,-1,19.5,2.1,-30.8,19.7,2.1,-30.4,5.73,1.98,-17.4,25.6
2014-11-20 00:22:00,0.0,1.94124,0.00031,403.213,0.055,0.0534,0.0016,139.992,45.000,41855.15753,1.94227,403.472,32.752,45.067,45.000,0.00,0.09,-272.68,-272.74,4,519,-1,19.6,2.1,-30.7,19.7,2.1,-30.3,5.73,1.95,-17.3,25.6
2014-11-20 00:23:00,0.0,1.94130,0.00034,403.353,0.096,0.0545,0.0023,139.995,45.000,41915.68615,1.94235,403.614,32.749,45.067,45.000,0.00,0.09,-272.68,-272.73,4,518,-1,19.6,2.1,-30.7,19.7,2.1,-30.3,5.73,1.95,-17.3,25.6
2014-11-20 00:24:00,0.0,1.94139,0.00039,403.362,0.027,0.0538,0.0019,140.008,45.000,41965.05181,1.94243,403.624,32.750,45.067,45.000,0.00,0.09,-272.68,-272.74,4,519,-1,19.6,2.1,-30.8,19.7,2.1,-30.3,5.73,1.96,-17.3,25.6
2014-11-20 00:25:00,0.0,1.94084,0.00043,403.341,0.044,0.0532,0.0018,140.001,45.000,42032.74613,1.94188,403.598,32.750,45.067,45.000,0.00,0.09,-272.69,-272.74,4,520,-1,19.6,2.0,-30.8,19.8,2.1,-30.3,5.73,1.97,-17.3,25.6
2014-11-20 00:26:00,0.0,1.94126,0.00031,403.407,0.032,0.0537,0.0020,140.008,45.000,42088.66025,1.94227,403.667,32.750,45.067,45.000,0.00,0.09,-272.69,-272.73,4,520,-1,19.7,2.0,-30.9,19.8,2.1,-30.3,5.73,2.00,-17.3,25.6
2014-11-20 00:27:00,0.0,1.94096,0.00070,403.460,0.039,0.0534,0.0016,139.998,45.000,42151.62470,1.94189,403.719,32.761,45.067,45.000,0.00,0.09,-272.69,-272.73,4,520,-1,19.7,2.0,-30.9,19.8,2.1,-30.4,5.73,2.02,-17.3,25.6
2014-11-20 00:28:00,0.0,1.94295,0.00057,403.426,0.020,0.0533,0.0016,139.993,45.000,42122.16565,1.94398,403.686,32.767,45.067,45.000,0.00,0.09,-272.69,-272.73,4,520,-1,19.7,2.0,-30.9,19.8,2.1,-30.4,5.73,2.05,-17.3,25.6
2014-11-20 00:29:00,0.0,1.94577,0.00236,403.383,0.054,0.0530,0.0016,140.002,45.000,42136.36165,1.94652,403.641,32.764,45.067,45.000,0.00,0.09,-272.68,-272.73,4,521,-1,19.7,2.0,-31.0,19.8,2.1,-30.4,5.73,2.07,-17.3,25.6
2014-11-20 00:30:00,0.0,1.94666,0.00116,403.267,0.052,0.0519,0.0016,139.997,45.000,42145.86655,1.94770,403.522,32.758,45.067,45.000,0.00,0.09,-272.69,-272.74,3,520,-1,19.7,2.0,-31.2,19.8,2.1,-30.4,5.73,2.07,-17.3,25.6
2014-11-20 00:31:00,0.0,1.94828,0.00063,403.124,0.043,0.0511,0.0015,140.004,45.000,42173.56711,1.94918,403.374,32.755,45.067,45.000,0.00,0.09,-272.69,-272.74,4,521,-1,19.7,1.9,-31.3,19.8,2.1,-30.5,5.73,2.05,-17.3,25.6
2014-11-20 00:32:00,0.0,1.94909,0.00071,402.990,0.061,0.0503,0.0015,140.003,45.000,42187.76991,1.95011,403.239,32.750,45.067,45.000,0.00,0.09,-272.68,-272.74,4,521,-1,19.7,1.9,-31.5,19.9,2.1,-30.6,5.73,2.04,-17.3,25.6
2014-11-20 00:33:00,0.0,1.94799,0.00040,402.877,0.028,0.0498,0.0019,139.998,45.000,42149.48579,1.94893,403.118,32.750,45.067,45.000,0.00,0.09,-272.67,-272.74,3,520,-1,19.6,1.9,-31.7,19.8,2.0,-30.8,5.73,2.01,-17.3,25.6
2014-11-20 00:34:00,0.0,1.94816,0.00039,402.851,0.026,0.0492,0.0018,139.997,45.000,42180.62314,1.94912,403.090,32.750,45.067,45.000,0.00,0.09,-272.68,-272.74,4,520,-1,19.6,1.8,-31.9,19.9,2.0,-30.9,5.73,1.99,-17.2,25.6
2014-11-20 00:35:00,0.0,1.94778,0.00042,402.818,0.027,0.0479,0.0016,140.002,45.000,42219.28827,1.94872,403.050,32.750,45.067,45.000,0.00,0.09,-272.68,-272.74,3,521,-1,19.6,1.8,-32.1,19.9,2.0,-31.0,5.73,1.97,-17.4,25.6
2014-11-20 00:36:00,0.0,1.94628,0.00138,402.730,0.057,0.0468,0.0016,139.963,45.000,41658.18579,1.94721,402.959,32.749,45.067,45.000,0.00,0.09,-272.67,-272.74,3,520,-1,19.6,1.8,-32.2,19.8,1.9,-31.2,5.73,1.95,-17.2,25.5
2014-11-20 00:37:00,0.0,1.94663,0.00094,402.742,0.035,0.0473,0.0022,140.002,45.000,41640.29900,1.94761,402.971,32.753,45.067,45.000,0.00,0.09,-272.68,-272.74,3,520,-1,19.6,1.8,-32.2,19.8,1.9,-31.3,5.73,1.95,-17.3,25.6
2014-11-20 00:38:00,0.0,1.94709,0.00531,402.747,0.380,0.0484,0.0015,140.067,45.000,41312.80423,1.94793,402.982,32.750,45.067,45.000,0.00,0.09,-272.69,-272.74,4,519,-1,19.6,1.8,-32.1,19.8,1.9,-31.4,5.73,1.96,-17.3,25.5
2014-11-20 00:39:00,0.0,1.94651,0.00063,402.722,0.021,0.0476,0.0013,140.020,45.000,41975.04520,1.94747,402.952,32.750,45.067,45.000,0.00,0.09,-272.68,-272.73,4,520,-1,19.6,1.8,-32.1,19.8,1.9,-31.4,5.73,1.98,-17.3,25.5
2014-11-20 00:40:00,0.0,1.94606,0.00062,402.681,0.048,0.0478,0.0020,139.984,45.000,41898.82635,1.94693,402.911,32.750,45.067,45.000,0.00,0.09,-272.68,-272.75,3,519,-1,19.6,1.8,-32.0,19.8,1.9,-31.4,5.73,2.01,-17.3,25.5
2014-11-20 00:41:00,0.0,1.94585,0.00080,402.692,0.055,0.0473,0.0016,140.008,45.000,41893.83283,1.94677,402.924,32.750,45.067,45.000,0.00,0.09,-272.69,-272.74,4,520,-1,19.5,1.8,-32.0,19.8,1.9,-31.4,5.73,2.03,-17.3,25.5
2014-11-20 00:42:00,0.0,1.94582,0.00073,402.740,0.035,0.0474,0.0013,140.000,45.000,41903.20251,1.94673,402.968,32.745,45.067,45.000,0.00,0.09,-272.68,-272.74,3,519,-1,19.5,1.8,-32.1,19.8,1.9,-31.4,5.73,2.05,-17.3,25.5
2014-11-20 00:43:00,0.0,1.94551,0.00072,402.738,0.043,0.0474,0.0017,139.980,45.000,41953.76723,1.94646,402.969,32.747,45.067,45.000,0.00,0.09,-272.68,-272.74,3,520,-1,19.5,1.8,-32.0,19.8,1.9,-31.4,5.73,2.06,-17.3,25.5
2014-11-20 00:44:00,0.0,1.94523,0.00077,402.727,0.045,0.0477,0.0017,139.997,45.000,41771.99268,1.94614,402.957,32.749,45.067,45.000,0.00,0.09,-272.69,-272.75,4,520,-1,19.5,1.8,-32.0,19.8,1.9,-31.4,5.73,2.07,-17.3,25.5
2014-11-20 00:45:00,0.0,1.94532,0.00071,402.684,0.045,0.0480,0.0016,139.992,45.000,41755.11759,1.94624,402.917,32.749,45.067,45.000,0.00,0.09,-272.68,-272.75,4,521,-1,19.5,1.8,-32.1,19.8,1.9,-31.4,5.73,2.06,-17.2,25.5
2014-11-20 00:46:00,0.0,1.94564,0.00061,402.680,0.030,0.0480,0.0016,140.007,45.000,41637.74864,1.94651,402.913,32.751,45.067,45.000,0.00,0.09,-272.68,-272.73,4,521,-1,19.5,1.8,-32.1,19.8,1.9,-31.4,5.73,2.03,-17.3,25.5
2014-11-20 00:47:00,0.0,1.94571,0.00083,402.681,0.037,0.0478,0.0019,140.015,45.000,41895.00960,1.94668,402.913,32.754,45.067,45.000,0.00,0.09,-272.68,-272.74,4,522,-1,19.5,1.8,-32.1,19.8,1.9,-31.4,5.73,1.99,-17.3,25.5
2014-11-20 00:48:00,0.0,1.94464,0.00081,402.674,0.039,0.0482,0.0014,139.977,45.000,41946.54349,1.94570,402.908,32.759,45.067,45.000,0.00,0.09,-272.68,-272.75,4,521,-1,19.5,1.8,-32.1,19.8,1.9,-31.4,5.73,1.97,-17.3,25.5
2014-11-20 00:49:00,0.0,1.94470,0.00077,402.705,0.048,0.0481,0.0011,139.995,45.000,41954.50028,1.94559,402.939,32.760,45.067,45.000,0.00,0.09,-272.68,-272.74,4,522,-1,19.4,1.8,-32.1,19.7,1.9,-31.5,5.73,1.95,-17.2,25.4
2014-11-20 00:50:00,0.0,1.94548,0.00713,402.663,0.500,0.0482,0.0018,140.131,45.000,41472.21530,1.94622,402.893,32.753,45.067,45.000,0.00,0.09,-272.68,-272.74,4,521,-1,19.4,1.9,-31.9,19.7,1.9,-31.4,5.73,1.95,-17.3,25.4
2014-11-20 00:51:00,0.0,1.94562,0.00047,402.721,0.036,0.0485,0.0016,140.014,45.000,42131.70310,1.94662,402.958,32.750,45.067,45.000,0.00,0.09,-272.69,-272.74,4,522,-1,19.4,1.9,-32.0,19.7,1.9,-31.4,5.73,1.95,-17.3,25.4
2014-11-20 00:52:00,0.0,1.94342,0.00082,402.697,0.021,0.0482,0.0020,140.000,45.000,42209.97640,1.94441,402.928,32.749,45.067,45.000,0.00,0.09,-272.68,-272.73,4,522,-1,19.4,1.9,-32.0,19.7,1.9,-31.5,5.73,1.98,-17.3,25.4
2014-11-20 00:53:00,0.0,1.94394,0.00066,402.716,0.026,0.0489,0.0012,140.008,45.000,42280.70380,1.94483,402.954,32.752,45.067,45.000,0.00,0.09,-272.68,-272.73,4,522,-1,19.4,1.9,-31.8,19.7,1.9,-31.4,5.73,2.01,-17.2,25.4
2014-11-20 00:54:00,0.0,1.94431,0.00025,402.709,0.027,0.0490,0.0017,139.995,45.000,42268.53243,1.94527,402.947,32.751,45.067,45.000,0.00,0.09,-272.70,-272.74,4,521,-1,19.3,1.9,-31.9,19.7,1.9,-31.3,5.73,2.04,-17.3,25.4
2014-11-20 00:55:00,0.0,1.94385,0.00034,402.692,0.022,0.0492,0.0022,139.997,45.000,42256.43973,1.94479,402.929,32.750,45.067,45.000,0.00,0.09,-272.68,-272.74,4,521,-1,19.3,1.9,-31.9,19.7,1.9,-31.4,5.73,2.06,-17.3,25.4
2014-11-20 00:56:00,0.0,1.94354,0.00042,402.700,0.025,0.0495,0.0014,140.002,45.000,42229.05782,1.94451,402.940,32.756,45.067,45.000,0.00,0.09,-272.68,-272.74,4,521,-1,19.3,1.9,-31.8,19.7,1.9,-31.4,5.73,2.07,-17.3,25.4
2014-11-20 00:57:00,0.0,1.94355,0.00036,402.701,0.039,0.0499,0.0012,140.001,45.000,42254.08605,1.94449,402.942,32.752,45.067,45.000,0.00,0.09,-272.68,-272.74,4,522,-1,19.3,1.9,-31.7,19.7,1.9,-31.3,5.73,2.06,-17.3,25.4
2014-11-20 00:58:00,0.0,1.94336,0.00057,402.701,0.035,0.0502,0.0015,140.001,45.000,42238.09913,1.94432,402.944,32.768,45.067,45.000,0.00,0.09,-272.69,-272.74,4,522,-1,19.3,1.9,-31.6,19.7,2.0,-31.2,5.73,2.05,-17.3,25.4
2014-11-20 00:59:00,0.0,1.94362,0.00065,402.704,0.024,0.0509,0.0016,140.002,45.000,42244.23693,1.94455,402.950,32.772,45.067,45.000,0.00,0.09,-272.68,-272.73,4,521,-1,19.3,1.9,-31.6,19.7,2.0,-31.2,5.73,2.02,-17.3,25.4
2014-11-20 01:00:00,0.0,1.94401,0.00035,402.704,0.031,0.0507,0.0012,139.999,45.000,42245.70832,1.94499,402.949,32.792,45.067,45.000,0.00,0.09,-272.68,-272.73,4,522,-1,19.3,1.9,-31.6,19.7,2.0,-31.1,5.73,1.98,-17.3,25.4
2014-11-20 01:01:00,0.0,1.94598,0.00160,402.743,0.299,0.0509,0.0016,140.049,45.000,41541.11373,1.94696,402.990,32.811,45.067,45.000,0.00,0.09,-272.69,-272.74,4,523,-1,19.3,2.0,-31.5,19.6,2.0,-31.1,5.73,1.95,-17.3,25.3
2014-11-20 01:02:00,0.0,1.94458,0.00034,402.753,0.035,0.0516,0.0017,140.008,45.000,42116.40844,1.94553,403.002,32.813,45.067,45.000,0.00,0.09,-272.67,-272.72,4,523,-1,19.2,2.0,-31.5,19.6,2.0,-31.1,5.73,1.94,-17.3,25.3
2014-11-20 01:03:00,0.0,1.94437,0.00045,402.739,0.031,0.0524,0.0023,140.005,45.000,42223.39294,1.94542,402.994,32.813,45.067,45.000,0.00,0.09,-272.70,-272.74,4,521,-1,19.2,2.0,-31.5,19.6,2.0,-31.1,5.73,1.95,-17.3,25.3
2014-11-20 01:04:00,0.0,1.94462,0.00035,402.745,0.026,0.0515,0.0015,140.001,45.000,42292.31195,1.94559,402.995,32.813,45.066,45.000,0.00,0.09,-272.69,-272.74,4,522,-1,19.2,2.0,-31.4,19.6,2.0,-30.9,5.73,1.97,-17.3,25.3
2014-11-20 01:05:00,0.0,1.94399,0.00032,402.719,0.023,0.0524,0.0015,140.004,45.000,42309.85221,1.94503,402.972,32.813,45.067,45.000,0.00,0.09,-272.69,-272.74,4,522,-1,19.2,2.0,-31.4,19.6,2.0,-30.9,5.73,2.01,-17.3,25.3
2014-11-20 01:06:00,0.0,1.94386,0.00036,402.710,0.029,0.0509,0.0018,139.997,45.000,42332.12823,1.94480,402.956,32.810,45.066,45.000,0.00,0.09,-272.68,-272.74,4,522,-1,19.2,2.0,-31.4,19.6,2.0,-31.0,5.73,2.04,-17.3,25.3
2014-11-20 01:07:00,0.0,1.94382,0.00040,402.756,0.020,0.0515,0.0014,140.003,45.000,42289.94117,1.94483,403.006,32.775,45.067,45.000,0.00,0.09,-272.69,-272.73,4,522,-1,19.2,2.0,-31.3,19.6,2.0,-30.8,5.73,2.06,-17.3,25.3
2014-11-20 01:08:00,0.0,1.94366,0.00046,402.740,0.031,0.0522,0.0018,140.001,45.000,42295.04230,1.94466,402.991,32.767,45.067,45.000,0.00,0.09,-272.69,-272.74,4,522,-1,19.2,2.0,-31.4,19.6,2.1,-30.8,5.73,2.07,-17.3,25.3
2014-11-20 01:09:00,0.0,1.94332,0.00033,402.743,0.041,0.0516,0.0017,139.999,45.000,42285.39670,1.94429,402.993,32.750,45.067,45.000,0.00,0.09,-272.68,-272.74,4,521,-1,19.2,2.0,-31.3,19.6,2.1,-30.8,5.73,2.06,-17.3,25.3
2014-11-20 01:10:00,0.0,1.94288,0.00040,402.729,0.039,0.0526,0.0013,139.997,45.000,42293.32596,1.94398,402.984,32.750,45.067,45.000,0.00,0.09,-272.68,-272.74,4,521,-1,19.2,2.0,-31.2,19.6,2.1,-30.8,5.73,2.05,-17.3,25.3
2014-11-20 01:11:00,0.0,1.94321,0.00037,402.746,0.032,0.0529,0.0023,139.999,45.000,42282.02891,1.94419,403.001,32.750,45.067,45.000,0.00,0.09,-272.68,-272.74,4,521,-1,19.2,2.0,-31.2,19.6,2.1,-30.8,5.73,2.01,-17.3,25.3
2014-11-20 01:12:00,0.0,1.94379,0.00192,402.748,0.187,0.0528,0.0016,140.002,45.000,41606.66872,1.94472,403.001,32.752,45.067,45.000,0.00,0.09,-272.68,-272.74,4,521,-1,19.1,2.1,-31.1,19.5,2.1,-30.8,5.73,1.98,-17.3,25.3
2014-11-20 01:13:00,0.0,1.94306,0.00080,402.778,0.046,0.0528,0.0018,140.036,45.000,41688.90540,1.94415,403.037,32.751,45.067,45.000,0.00,0.09,-272.68,-272.74,4,521,-1,19.1,2.0,-31.1,19.5,2.1,-30.7,5.73,1.96,-17.3,25.3
2014-11-20 01:14:00,0.0,1.94349,0.00064,402.767,0.028,0.0523,0.0012,140.009,45.000,42057.86990,1.94445,403.019,32.750,45.067,45.000,0.00,0.09,-272.67,-272.74,4,521,-1,19.1,2.1,-31.0,19.5,2.1,-30.7,5.73,1.95,-17.3,25.3
2014-11-20 01:15:00,0.0,1.94332,0.00032,402.703,0.041,0.0525,0.0016,139.995,45.000,42076.52038,1.94432,402.958,32.760,45.067,45.000,0.00,0.09,-272.69,-272.74,4,520,-1,19.1,2.1,-31.0,19.5,2.1,-30.7,5.73,1.95,-17.3,25.3
2014-11-20 01:16:00,0.0,1.94352,0.00030,402.719,0.029,0.0533,0.0014,140.006,45.000,42066.81956,1.94454,402.976,32.781,45.067,45.000,0.00,0.09,-272.68,-272.74,4,520,-1,19.1,2.1,-31.0,19.5,2.1,-30.7,5.73,1.98,-17.3,25.3
2014-11-20 01:17:00,0.0,1.94369,0.00043,402.731,0.037,0.0531,0.0014,139.992,45.000,42028.74623,1.94469,402.987,32.766,45.067,45.000,0.00,0.09,-272.68,-272.74,4,520,-1,19.1,2.1,-31.0,19.5,2.1,-30.6,5.73,2.00,-17.3,25.3
2014-11-20 01:18:00,0.0,1.94364,0.00038,402.764,0.026,0.0529,0.0018,140.011,45.000,42079.16032,1.94467,403.021,32.758,45.067,45.000,0.00,0.09,-272.69,-272.74,4,519,-1,19.1,2.1,-31.0,19.5,2.1,-30.6,5.73,2.03,-17.3,25.3
2014-11-20 01:19:00,0.0,1.94344,0.00037,402.775,0.030,0.0533,0.0010,140.001,45.000,42087.24517,1.94447,403.034,32.756,45.067,45.000,0.00,0.09,-272.69,-272.74,4,519,-1,19.1,2.1,-31.0,19.5,2.1,-30.6,5.73,2.05,-17.3,25.3
2014-11-20 01:20:00,0.0,1.94385,0.00172,402.721,0.272,0.0537,0.0014,139.969,45.000,41679.14226,1.94482,402.978,32.752,45.067,45.000,0.00,0.09,-272.68,-272.74,4,518,-1,19.1,2.1,-31.0,19.5,2.1,-30.6,5.73,2.07,-17.3,25.3
2014-11-20 01:21:00,0.0,1.94283,0.00052,402.772,0.038,0.0528,0.0013,140.029,45.000,41977.34643,1.94393,403.030,32.750,45.067,45.000,0.00,0.09,-272.69,-272.75,4,518,-1,19.1,2.1,-30.9,19.5,2.1,-30.6,5.73,2.07,-17.3,25.3
2014-11-20 01:22:00,0.0,1.94222,0.00045,402.742,0.027,0.0542,0.0018,140.002,45.000,42121.75457,1.94327,403.004,32.750,45.067,45.000,0.00,0.09,-272.68,-272.75,4,518,-1,19.1,2.1,-30.9,19.5,2.1,-30.6,5.73,2.06,-17.3,25.3
2014-11-20 01:23:00,0.0,1.94252,0.00035,402.748,0.018,0.0545,0.0013,140.003,45.000,42141.64588,1.94355,403.012,32.750,45.067,45.000,0.00,0.09,-272.68,-272.73,4,517,-1,19.1,2.1,-30.9,19.5,2.1,-30.6,5.73,2.04,-17.3,25.3
2014-11-20 01:24:00,0.0,1.94239,0.00040,402.748,0.037,0.0531,0.0014,140.004,45.000,42222.47360,1.94340,403.006,32.751,45.067,45.000,0.00,0.09,-272.68,-272.74,4,518,-1,19.1,2.1,-30.8,19.5,2.1,-30.5,5.73,2.01,-17.4,25.3
2014-11-20 01:25:00,0.0,1.94161,0.00043,402.758,0.029,0.0535,0.0025,140.000,45.000,42240.56451,1.94265,403.016,32.769,45.067,45.000,0.00,0.09,-272.69,-272.74,4,519,-1,19.1,2.1,-30.7,19.5,2.1,-30.5,5.73,1.99,-17.3,25.2
2014-11-20 01:26:00,0.0,1.94108,0.00032,402.825,0.043,0.0544,0.0017,140.002,45.000,42216.03539,1.94218,403.085,32.789,45.067,45.000,0.00,0.09,-272.67,-272.74,4,519,-1,19.0,2.1,-30.7,19.5,2.1,-30.5,5.73,1.97,-17.3,25.2
2014-11-20 01:27:00,0.0,1.94126,0.00054,402.832,0.045,0.0552,0.0017,139.997,45.000,42201.61394,1.94227,403.102,32.782,45.067,45.000,0.00,0.09,-272.68,-272.73,4,519,-1,19.0,2.1,-30.8,19.5,2.1,-30.4,5.73,1.96,-17.4,25.2
2014-11-20 01:28:00,0.0,1.94135,0.00033,402.776,0.024,0.0548,0.0014,140.000,45.000,42190.10191,1.94238,403.043,32.793,45.067,45.000,0.00,0.09,-272.69,-272.75,4,519,-1,19.0,2.2,-30.6,19.4,2.2,-30.4,5.73,1.96,-17.3,25.2
2014-11-20 01:29:00,0.0,1.94129,0.00029,402.775,0.028,0.0553,0.0015,140.002,45.000,42217.46027,1.94238,403.041,32.774,45.067,45.000,0.00,0.09,-272.69,-272.74,4,519,-1,19.0,2.2,-30.6,19.4,2.2,-30.4,5.73,1.97,-17.3,25.2
2014-11-20 01:30:00,0.0,1.94120,0.00027,402.807,0.019,0.0561,0.0019,139.997,45.000,42212.95804,1.94225,403.078,32.769,45.067,45.000,0.00,0.09,-272.68,-272.73,4,519,-1,19.0,2.2,-30.7,19.4,2.2,-30.4,5.73,1.99,-17.3,25.2
2014-11-20 01:31:00,0.0,1.94092,0.00033,402.812,0.041,0.0554,0.0013,140.002,45.000,42203.17268,1.94199,403.080,32.776,45.067,45.000,0.00,0.09,-272.68,-272.74,4,519,-1,19.0,2.2,-30.6,19.4,2.2,-30.3,5.73,2.01,-17.3,25.2
2014-11-20 01:32:00,0.0,1.94112,0.00043,402.810,0.040,0.0562,0.0013,140.004,45.000,42206.45480,1.94218,403.082,32.761,45.067,45.000,0.00,0.09,-272.69,-272.75,4,519,-1,19.0,2.2,-30.6,19.4,2.2,-30.3,5.73,2.03,-17.3,25.2
2014-11-20 01:33:00,0.0,1.94175,0.00055,402.754,0.029,0.0552,0.0018,140.005,45.000,42239.77505,1.94280,403.024,32.772,45.067,45.000,0.00,0.09,-272.68,-272.73,4,519,-1,19.0,2.2,-30.5,19.4,2.2,-30.3,5.73,2.06,-17.3,25.2
2014-11-20 01:34:00,0.0,1.94180,0.00042,402.743,0.032,0.0555,0.0018,140.001,45.000,42260.49762,1.94285,403.012,32.779,45.067,45.000,0.00,0.09,-272.71,-272.75,4,519,-1,19.0,2.2,-30.5,19.4,2.2,-30.2,5.73,2.07,-17.3,25.2
2014-11-20 01:35:00,0.0,1.94188,0.00050,402.770,0.122,0.0563,0.0016,139.924,45.000,42221.71788,1.94291,403.059,32.772,45.067,45.000,0.00,0.09,-272.69,-272.75,4,519,-1,19.0,2.2,-30.5,19.4,2.2,-30.2,5.73,2.07,-17.3,25.2
2014-11-20 01:36:00,0.0,1.94308,0.00273,402.868,0.321,0.0564,0.0013,140.046,45.000,41713.96349,1.94421,403.124,32.773,45.067,45.000,0.00,0.09,-272.69,-272.69,4,519,-1,19.0,2.2,-30.5,19.4,2.2,-30.1,5.73,2.06,-17.3,25.2
2014-11-20 01:37:00,0.0,1.94202,0.00032,402.887,0.027,0.0569,0.0017,139.996,45.000,42241.91476,1.94308,403.161,32.781,45.067,45.000,0.00,0.09,-272.68,-272.75,4,519,-1,19.0,2.2,-30.4,19.4,2.2,-30.1,5.73,2.03,-17.3,25.2
2014-11-20 01:38:00,0.0,1.94232,0.00032,402.932,0.031,0.0562,0.0020,140.005,45.000,42257.42046,1.94340,403.203,32.762,45.067,45.000,0.00,0.09,-272.69,-272.74,4,519,-1,19.0,2.2,-30.4,19.4,2.2,-30.1,5.73,2.00,-17.4,25.2
2014-11-20 01:39:00,0.0,1.94205,0.00031,402.927,0.037,0.0568,0.0011,140.006,45.000,42295.29806,1.94316,403.202,32.766,45.067,45.000,0.00,0.09,-272.68,-272.75,4,519,-1,19.0,2.2,-30.4,19.4,2.2,-30.1,5.73,1.97,-17.3,25.2
2014-11-20 01:40:00,0.0,1.94195,0.00046,402.991,0.031,0.0552,0.0014,140.003,45.000,42322.68460,1.94303,403.260,32.750,45.067,45.000,0.00,0.09,-272.68,-272.73,4,520,-1,19.0,2.2,-30.6,19.4,2.2,-30.1,5.73,1.96,-17.3,25.2
2014-11-20 01:41:00,0.0,1.94222,0.00044,403.037,0.055,0.0551,0.0021,139.998,45.000,42284.52851,1.94324,403.299,32.750,45.067,45.000,0.00,0.09,-272.68,-272.75,4,520,-1,19.0,2.1,-30.7,19.4,2.2,-30.1,5.73,1.96,-17.4,25.2
2014-11-20 01:42:00,0.0,1.94288,0.00063,403.194,0.095,0.0549,0.0015,140.004,45.000,42282.36217,1.94390,403.458,32.750,45.067,45.000,0.00,0.09,-272.68,-272.74,4,520,-1,19.0,2.1,-30.8,19.4,2.2,-30.3,5.73,1.97,-17.4,25.2
2014-11-20 01:43:00,0.0,1.94372,0.00046,403.364,0.050,0.0544,0.0014,139.998,45.000,42298.79216,1.94473,403.629,32.750,45.067,45.000,0.00,0.09,-272.69,-272.74,4,520,-1,19.0,2.1,-30.9,19.4,2.2,-30.4,5.73,1.98,-17.4,25.2
2014-11-20 01:44:00,0.0,1.94252,0.00060,403.210,0.031,0.0534,0.0018,140.004,45.000,42341.64411,1.94360,403.470,32.748,45.067,45.000,0.00,0.09,-272.69,-272.74,4,521,-1,19.0,2.1,-31.0,19.4,2.2,-30.4,5.73,2.01,-17.4,25.2
2014-11-20 01:45:00,0.0,1.94226,0.00050,403.113,0.047,0.0533,0.0021,139.982,45.000,42245.35926,1.94325,403.374,32.750,45.067,45.000,0.00,0.09,-272.69,-272.74,4,518,-1,19.0,2.1,-31.1,19.4,2.1,-30.5,5.73,2.03,-17.4,25.2
2014-11-20 01:46:00,0.0,1.94268,0.00046,403.192,0.056,0.0520,0.0014,140.001,45.000,42178.27422,1.94370,403.443,32.749,45.067,45.000,0.00,0.09,-272.68,-272.73,4,518,-1,19.0,2.1,-31.2,19.3,2.1,-30.6,5.73,2.05,-17.4,25.2